Time,TemperatureF,DewpointF,PressureIn,WindDirection,WindDirectionDegrees,WindSpeedMPH,WindSpeedGustMPH,Humidity,HourlyPrecipIn,Conditions,Clouds,dailyrainin,SoftwareType,DateUTC
2013-02-13 00:00:00,23.6,23.6,28.76,South,182,2.0,5.0,100,0.00,,CLR,0.00,VWS V14.01,2013-02-13 06:00:00,
2013-02-13 00:05:00,23.5,23.5,28.76,South,171,3.0,10.0,100,0.00,,CLR,0.00,VWS V14.01,2013-02-13 06:05:00,
2013-02-13 00:10:00,23.7,23.7,28.75,SSE,159,3.0,3.0,100,0.00,,CLR,0.00,VWS V14.01,2013-02-13 06:10:00,
2013-02-13 00:15:00,23.8,23.8,28.76,SSE,168,1.0,7.0,100,0.00,,CLR,0.00,VWS V14.01,2013-02-13 06:15:00,
2013-02-13 00:20:00,23.8,23.8,28.76,South,169,5.0,7.0,100,0.00,,CLR,0.00,VWS V14.01,2013-02-13 06:20:00,
2013-02-13 00:25:00,23.9,23.9,28.76,South,180,0.0,9.0,100,0.00,,CLR,0.00,VWS V14.01,2013-02-13 06:25:00,
2013-02-13 00:30:00,24.1,24.1,28.75,SE,144,3.0,4.0,100,0.00,,CLR,0.00,VWS V14.01,2013-02-13 06:30:00,
2013-02-13 00:35:00,24.3,24.3,28.75,SSE,156,2.0,11.0,100,0.00,,CLR,0.00,VWS V14.01,2013-02-13 06:35:00,
2013-02-13 00:40:00,24.5,24.5,28.75,South,180,5.0,8.0,100,0.00,,CLR,0.00,VWS V14.01,2013-02-13 06:40:00,
2013-02-13 00:45:00,24.9,24.9,28.75,South,189,12.0,16.0,100,0.00,,CLR,0.00,VWS V14.01,2013-02-13 06:45:00,
2013-02-13 00:50:00,25.1,25.1,28.75,SSW,193,6.0,10.0,100,0.00,,CLR,0.00,VWS V14.01,2013-02-13 06:50:00,
2013-02-13 00:55:00,25.2,25.2,28.75,SSW,194,10.0,11.0,100,0.00,,CLR,0.00,VWS V14.01,2013-02-13 06:55:00,
2013-02-13 01:00:00,25.3,25.3,28.74,South,186,2.0,7.0,100,0.00,,CLR,0.00,VWS V14.01,2013-02-13 07:00:00,
2013-02-13 01:05:00,25.2,25.2,28.74,SSE,161,9.0,13.0,100,0.00,,CLR,0.00,VWS V14.01,2013-02-13 07:05:00,
2013-02-13 01:10:00,25.2,25.2,28.74,South,181,3.0,4.0,100,0.00,,CLR,0.00,VWS V14.01,2013-02-13 07:10:00,
2013-02-13 01:15:00,25.2,25.2,28.74,South,187,5.0,11.0,100,0.00,,CLR,0.00,VWS V14.01,2013-02-13 07:15:00,
2013-02-13 01:20:00,25.1,25.1,28.74,SSW,202,5.0,5.0,100,0.00,,CLR,0.00,VWS V14.01,2013-02-13 07:20:00,
2013-02-13 01:25:00,25.1,25.1,28.74,SSE,168,3.0,9.0,100,0.00,,CLR,0.00,VWS V14.01,2013-02-13 07:25:00,
2013-02-13 01:30:00,25.0,25.0,28.74,South,174,3.0,3.0,100,0.00,,CLR,0.00,VWS V14.01,2013-02-13 07:30:00,
2013-02-13 01:35:00,24.8,24.8,28.73,South,185,3.0,7.0,100,0.00,,CLR,0.00,VWS V14.01,2013-02-13 07:35:00,
2013-02-13 01:40:00,24.7,24.7,28.73,South,190,4.0,5.0,100,0.00,,CLR,0.00,VWS V14.01,2013-02-13 07:40:00,
2013-02-13 01:45:00,24.6,24.6,28.73,South,180,5.0,8.0,100,0.00,,CLR,0.00,VWS V14.01,2013-02-13 07:45:00,
2013-02-13 01:50:00,24.5,24.5,28.73,South,188,2.0,2.0,100,0.00,,CLR,0.00,VWS V14.01,2013-02-13 07:50:00,
2013-02-13 01:55:00,24.4,24.4,28.73,South,173,2.0,5.0,100,0.00,,CLR,0.00,VWS V14.01,2013-02-13 07:55:00,
2013-02-13 02:00:00,24.2,24.2,28.73,SSW,200,2.0,2.0,100,0.00,,CLR,0.00,VWS V14.01,2013-02-13 08:00:00,
2013-02-13 02:05:00,24.2,24.2,28.73,SSW,207,3.0,4.0,100,0.00,,CLR,0.00,VWS V14.01,2013-02-13 08:05:00,
2013-02-13 02:10:00,24.3,24.3,28.73,SSW,203,3.0,3.0,100,0.00,,CLR,0.00,VWS V14.01,2013-02-13 08:10:00,
2013-02-13 02:15:00,24.3,24.3,28.73,South,185,4.0,9.0,100,0.00,,CLR,0.00,VWS V14.01,2013-02-13 08:15:00,
2013-02-13 02:20:00,24.3,24.3,28.73,South,182,2.0,2.0,100,0.00,,CLR,0.00,VWS V14.01,2013-02-13 08:20:00,
2013-02-13 02:25:00,24.2,24.2,28.73,SW,215,4.0,7.0,100,0.00,,CLR,0.00,VWS V14.01,2013-02-13 08:25:00,
2013-02-13 02:30:00,24.0,24.0,28.73,South,188,2.0,7.0,100,0.00,,CLR,0.00,VWS V14.01,2013-02-13 08:30:00,
2013-02-13 02:35:00,24.1,24.1,28.73,SW,214,2.0,7.0,100,0.00,,CLR,0.00,VWS V14.01,2013-02-13 08:35:00,
2013-02-13 02:40:00,24.1,24.1,28.73,SW,217,3.0,3.0,100,0.00,,CLR,0.00,VWS V14.01,2013-02-13 08:40:00,
2013-02-13 02:45:00,24.1,24.1,28.72,SW,214,2.0,5.0,100,0.00,,CLR,0.00,VWS V14.01,2013-02-13 08:45:00,
2013-02-13 02:50:00,24.1,24.1,28.72,SSW,199,3.0,3.0,100,0.00,,CLR,0.00,VWS V14.01,2013-02-13 08:50:00,
2013-02-13 02:55:00,24.0,24.0,28.72,SSW,192,2.0,5.0,100,0.00,,CLR,0.00,VWS V14.01,2013-02-13 08:55:00,
2013-02-13 03:00:00,23.8,23.8,28.71,South,182,2.0,5.0,100,0.00,,CLR,0.00,VWS V14.01,2013-02-13 09:00:00,
2013-02-13 03:05:00,23.5,23.5,28.71,SSW,198,5.0,7.0,100,0.00,,CLR,0.00,VWS V14.01,2013-02-13 09:05:00,
2013-02-13 03:10:00,23.5,23.5,28.71,SSW,199,2.0,3.0,100,0.00,,CLR,0.00,VWS V14.01,2013-02-13 09:10:00,
2013-02-13 03:15:00,23.4,23.4,28.71,SSW,205,2.0,5.0,100,0.00,,CLR,0.00,VWS V14.01,2013-02-13 09:15:00,
2013-02-13 03:20:00,23.4,23.4,28.71,SW,227,5.0,5.0,100,0.00,,CLR,0.00,VWS V14.01,2013-02-13 09:20:00,
2013-02-13 03:25:00,23.4,23.4,28.71,SSW,208,3.0,7.0,100,0.00,,CLR,0.00,VWS V14.01,2013-02-13 09:25:00,
2013-02-13 03:30:00,23.4,23.4,28.71,South,191,2.0,7.0,100,0.00,,CLR,0.00,VWS V14.01,2013-02-13 09:30:00,
2013-02-13 03:35:00,23.3,23.3,28.71,SSW,201,2.0,5.0,100,0.00,,CLR,0.00,VWS V14.01,2013-02-13 09:35:00,
2013-02-13 03:40:00,23.2,23.2,28.70,South,190,2.0,5.0,100,0.00,,,0.00,VWS V14.01,2013-02-13 09:40:00,
2013-02-13 03:45:00,23.1,23.1,28.70,South,190,0.0,3.0,100,0.00,,,0.00,VWS V14.01,2013-02-13 09:45:00,
2013-02-13 03:50:00,22.9,22.9,28.71,SSW,196,1.0,1.0,100,0.00,,,0.00,VWS V14.01,2013-02-13 09:50:00,
2013-02-13 03:55:00,22.8,22.8,28.70,SSW,208,4.0,4.0,100,0.00,,,0.00,VWS V14.01,2013-02-13 09:55:00,
2013-02-13 04:00:00,22.8,22.8,28.70,SSW,201,3.0,5.0,100,0.00,,,0.00,VWS V14.01,2013-02-13 10:00:00,
2013-02-13 04:05:00,22.8,22.8,28.70,SSW,203,2.0,5.0,100,0.00,,,0.00,VWS V14.01,2013-02-13 10:05:00,
2013-02-13 04:10:00,22.9,22.9,28.70,SSW,209,4.0,7.0,100,0.00,,,0.00,VWS V14.01,2013-02-13 10:10:00,
2013-02-13 04:15:00,23.0,23.0,28.70,SSW,201,3.0,5.0,100,0.00,,,0.00,VWS V14.01,2013-02-13 10:15:00,
2013-02-13 04:20:00,22.9,22.9,28.69,SSW,200,1.0,5.0,100,0.00,,,0.00,VWS V14.01,2013-02-13 10:20:00,
2013-02-13 04:25:00,23.1,23.1,28.70,SW,215,2.0,6.0,100,0.00,,,0.00,VWS V14.01,2013-02-13 10:25:00,
2013-02-13 04:30:00,23.0,23.0,28.69,SSW,195,3.0,6.0,100,0.00,,,0.00,VWS V14.01,2013-02-13 10:30:00,
2013-02-13 04:35:00,23.1,23.1,28.69,South,190,1.0,5.0,100,0.00,,,0.00,VWS V14.01,2013-02-13 10:35:00,
2013-02-13 04:40:00,23.1,23.1,28.69,SW,225,2.0,5.0,100,0.00,,,0.00,VWS V14.01,2013-02-13 10:40:00,
2013-02-13 04:45:00,23.2,23.2,28.69,WSW,245,3.0,5.0,100,0.00,,,0.00,VWS V14.01,2013-02-13 10:45:00,
2013-02-13 04:50:00,23.4,23.4,28.69,WSW,240,1.0,5.0,100,0.00,,,0.00,VWS V14.01,2013-02-13 10:50:00,
2013-02-13 04:55:00,23.4,23.4,28.69,SW,233,3.0,3.0,100,0.00,,,0.00,VWS V14.01,2013-02-13 10:55:00,
2013-02-13 05:00:00,23.5,23.5,28.69,WSW,242,2.0,4.0,100,0.00,,,0.00,VWS V14.01,2013-02-13 11:00:00,
2013-02-13 05:05:00,23.5,23.5,28.69,SSW,207,3.0,3.0,100,0.00,,,0.00,VWS V14.01,2013-02-13 11:05:00,
2013-02-13 05:09:00,23.4,23.4,28.69,SW,228,1.0,4.0,100,0.00,,,0.00,VWS V14.01,2013-02-13 11:09:00,
2013-02-13 05:14:00,23.2,23.2,28.69,SSW,194,3.0,5.0,100,0.00,,,0.00,VWS V14.01,2013-02-13 11:14:00,
2013-02-13 05:19:00,23.1,23.1,28.68,SSW,203,3.0,5.0,100,0.00,,,0.00,VWS V14.01,2013-02-13 11:19:00,
2013-02-13 05:24:00,23.0,23.0,28.68,SSW,209,3.0,3.0,100,0.00,,,0.00,VWS V14.01,2013-02-13 11:24:00,
2013-02-13 05:29:00,23.0,23.0,28.68,SSW,203,3.0,4.0,100,0.00,,,0.00,VWS V14.01,2013-02-13 11:29:00,
2013-02-13 05:34:00,22.9,22.9,28.68,SSW,201,3.0,4.0,100,0.00,,,0.00,VWS V14.01,2013-02-13 11:34:00,
2013-02-13 05:39:00,22.9,22.9,28.68,SSW,207,2.0,4.0,100,0.00,,,0.00,VWS V14.01,2013-02-13 11:39:00,
2013-02-13 05:44:00,22.8,22.8,28.67,SSW,206,2.0,4.0,100,0.00,,,0.00,VWS V14.01,2013-02-13 11:44:00,
2013-02-13 05:49:00,22.8,22.8,28.67,SSW,203,3.0,4.0,100,0.00,,,0.00,VWS V14.01,2013-02-13 11:49:00,
2013-02-13 05:54:00,22.6,22.6,28.67,SSW,213,2.0,4.0,100,0.00,,,0.00,VWS V14.01,2013-02-13 11:54:00,
2013-02-13 05:59:00,22.5,22.5,28.67,SSW,197,2.0,4.0,100,0.00,,,0.00,VWS V14.01,2013-02-13 11:59:00,
2013-02-13 06:04:00,22.6,22.6,28.67,SSW,208,3.0,4.0,100,0.00,,,0.00,VWS V14.01,2013-02-13 12:04:00,
2013-02-13 06:09:00,22.5,22.5,28.67,SSW,205,2.0,4.0,100,0.00,,,0.00,VWS V14.01,2013-02-13 12:09:00,
2013-02-13 06:14:00,22.5,22.5,28.67,SW,225,2.0,3.0,100,0.00,,,0.00,VWS V14.01,2013-02-13 12:14:00,
2013-02-13 06:19:00,22.5,22.5,28.67,SSW,195,2.0,4.0,100,0.00,,,0.00,VWS V14.01,2013-02-13 12:19:00,
2013-02-13 06:24:00,22.5,22.5,28.67,SSW,211,3.0,4.0,100,0.00,,,0.00,VWS V14.01,2013-02-13 12:24:00,
2013-02-13 06:29:00,22.4,22.4,28.67,SSW,207,3.0,4.0,100,0.00,,,0.00,VWS V14.01,2013-02-13 12:29:00,
2013-02-13 06:34:00,22.2,22.2,28.67,South,190,3.0,4.0,100,0.00,,,0.00,VWS V14.01,2013-02-13 12:34:00,
2013-02-13 06:39:00,22.2,22.2,28.67,SSW,209,2.0,4.0,100,0.00,,,0.00,VWS V14.01,2013-02-13 12:39:00,
2013-02-13 06:44:00,22.2,22.2,28.67,SSW,205,3.0,4.0,100,0.00,,,0.00,VWS V14.01,2013-02-13 12:44:00,
2013-02-13 06:49:00,22.2,22.2,28.67,SSW,206,2.0,4.0,100,0.00,,,0.00,VWS V14.01,2013-02-13 12:49:00,
2013-02-13 06:54:00,22.2,22.2,28.67,SW,233,3.0,4.0,100,0.00,,,0.00,VWS V14.01,2013-02-13 12:54:00,
2013-02-13 06:59:00,22.3,22.3,28.68,SW,216,2.0,5.0,100,0.00,,,0.00,VWS V14.01,2013-02-13 12:59:00,
2013-02-13 07:04:00,22.4,22.4,28.67,SW,222,2.0,5.0,100,0.00,,,0.00,VWS V14.01,2013-02-13 13:04:00,
2013-02-13 07:09:00,22.6,22.6,28.67,SW,233,3.0,5.0,100,0.00,,,0.00,VWS V14.01,2013-02-13 13:09:00,
2013-02-13 07:14:00,22.8,22.8,28.67,SW,234,1.0,4.0,100,0.00,,,0.00,VWS V14.01,2013-02-13 13:14:00,
2013-02-13 07:19:00,22.9,22.9,28.67,WSW,243,3.0,4.0,100,0.00,,,0.00,VWS V14.01,2013-02-13 13:19:00,
2013-02-13 07:24:00,23.0,23.0,28.67,SW,224,2.0,4.0,100,0.00,,,0.00,VWS V14.01,2013-02-13 13:24:00,
2013-02-13 07:29:00,23.1,23.1,28.67,West,263,2.0,4.0,100,0.00,,,0.00,VWS V14.01,2013-02-13 13:29:00,
2013-02-13 07:34:00,23.3,23.3,28.67,West,262,1.0,4.0,100,0.00,,,0.00,VWS V14.01,2013-02-13 13:34:00,
2013-02-13 07:39:00,23.5,23.5,28.67,West,262,1.0,4.0,100,0.00,,,0.00,VWS V14.01,2013-02-13 13:39:00,
2013-02-13 07:44:00,23.5,23.5,28.67,West,264,3.0,4.0,100,0.00,,,0.00,VWS V14.01,2013-02-13 13:44:00,
2013-02-13 07:49:00,23.7,23.7,28.67,West,277,2.0,4.0,100,0.00,,,0.00,VWS V14.01,2013-02-13 13:49:00,
2013-02-13 07:54:00,23.8,23.8,28.67,West,271,2.0,4.0,100,0.00,,,0.00,VWS V14.01,2013-02-13 13:54:00,
2013-02-13 07:59:00,23.9,23.9,28.67,WNW,289,3.0,4.0,100,0.00,,,0.00,VWS V14.01,2013-02-13 13:59:00,
2013-02-13 08:04:00,23.9,23.9,28.67,WNW,299,1.0,3.0,100,0.00,,,0.00,VWS V14.01,2013-02-13 14:04:00,
2013-02-13 08:09:00,24.1,24.1,28.67,WNW,295,2.0,3.0,100,0.00,,,0.00,VWS V14.01,2013-02-13 14:09:00,
2013-02-13 08:14:00,24.1,24.1,28.67,WNW,284,2.0,4.0,100,0.00,,,0.00,VWS V14.01,2013-02-13 14:14:00,
2013-02-13 08:19:00,24.3,24.3,28.67,WNW,284,1.0,4.0,100,0.00,,,0.00,VWS V14.01,2013-02-13 14:19:00,
2013-02-13 08:24:00,24.4,24.4,28.67,West,270,1.0,4.0,100,0.00,,,0.00,VWS V14.01,2013-02-13 14:24:00,
2013-02-13 08:29:00,24.5,24.5,28.67,West,260,2.0,4.0,100,0.00,,,0.00,VWS V14.01,2013-02-13 14:29:00,
2013-02-13 08:34:00,24.7,24.7,28.67,West,270,1.0,4.0,100,0.00,,,0.00,VWS V14.01,2013-02-13 14:34:00,
2013-02-13 08:39:00,24.8,24.8,28.66,WNW,285,1.0,4.0,100,0.00,,,0.00,VWS V14.01,2013-02-13 14:39:00,
2013-02-13 08:44:00,25.0,25.0,28.66,WNW,285,0.0,3.0,100,0.00,,,0.00,VWS V14.01,2013-02-13 14:44:00,
2013-02-13 08:49:00,25.1,25.1,28.66,WNW,288,3.0,5.0,100,0.00,,,0.00,VWS V14.01,2013-02-13 14:49:00,
2013-02-13 08:54:00,25.3,25.3,28.66,WNW,290,4.0,4.0,100,0.00,,,0.00,VWS V14.01,2013-02-13 14:54:00,
2013-02-13 08:59:00,25.6,25.6,28.66,WNW,285,2.0,5.0,100,0.00,,,0.00,VWS V14.01,2013-02-13 14:59:00,
2013-02-13 09:04:00,25.8,25.8,28.66,West,274,4.0,5.0,100,0.00,,,0.00,VWS V14.01,2013-02-13 15:04:00,
2013-02-13 09:09:00,26.1,26.1,28.66,WNW,286,3.0,5.0,100,0.00,,,0.00,VWS V14.01,2013-02-13 15:09:00,
2013-02-13 09:14:00,26.4,26.4,28.66,West,272,3.0,4.0,100,0.00,,,0.00,VWS V14.01,2013-02-13 15:14:00,
2013-02-13 09:19:00,26.5,26.5,28.66,West,262,2.0,5.0,100,0.00,,,0.00,VWS V14.01,2013-02-13 15:19:00,
2013-02-13 09:24:00,26.9,26.9,28.66,West,271,4.0,6.0,100,0.00,,,0.00,VWS V14.01,2013-02-13 15:24:00,
2013-02-13 09:29:00,27.1,27.1,28.67,WNW,292,3.0,6.0,100,0.00,,,0.00,VWS V14.01,2013-02-13 15:29:00,
2013-02-13 09:34:00,27.4,27.4,28.67,WNW,289,3.0,5.0,100,0.00,,,0.00,VWS V14.01,2013-02-13 15:34:00,
2013-02-13 09:39:00,27.5,27.5,28.67,West,270,2.0,5.0,100,0.00,,,0.00,VWS V14.01,2013-02-13 15:39:00,
2013-02-13 09:44:00,27.9,27.9,28.67,NW,314,3.0,5.0,100,0.00,,,0.00,VWS V14.01,2013-02-13 15:44:00,
2013-02-13 09:49:00,28.1,28.1,28.67,West,275,3.0,5.0,100,0.00,,,0.00,VWS V14.01,2013-02-13 15:49:00,
2013-02-13 09:54:00,28.3,28.3,28.67,WNW,285,6.0,9.0,100,0.00,,,0.00,VWS V14.01,2013-02-13 15:54:00,
2013-02-13 09:59:00,28.4,28.4,28.67,WNW,282,7.0,10.0,100,0.00,,,0.00,VWS V14.01,2013-02-13 15:59:00,
2013-02-13 10:04:00,28.5,28.5,28.67,West,272,8.0,8.0,100,0.00,,,0.00,VWS V14.01,2013-02-13 16:04:00,
2013-02-13 10:09:00,28.7,28.7,28.66,WNW,288,4.0,9.0,100,0.00,,,0.00,VWS V14.01,2013-02-13 16:09:00,
2013-02-13 10:14:00,28.8,28.8,28.66,NW,311,4.0,6.0,100,0.00,,,0.00,VWS V14.01,2013-02-13 16:14:00,
2013-02-13 10:19:00,29.0,29.0,28.66,West,265,5.0,6.0,100,0.00,,,0.00,VWS V14.01,2013-02-13 16:19:00,
2013-02-13 10:24:00,29.3,29.3,28.66,West,274,3.0,5.0,100,0.00,,,0.00,VWS V14.01,2013-02-13 16:24:00,
2013-02-13 10:29:00,29.5,29.5,28.66,SW,232,3.0,5.0,100,0.00,,,0.00,VWS V14.01,2013-02-13 16:29:00,
2013-02-13 10:34:00,29.9,29.9,28.66,WSW,248,0.0,4.0,100,0.00,,,0.00,VWS V14.01,2013-02-13 16:34:00,
2013-02-13 10:39:00,30.2,30.2,28.66,SW,218,0.0,5.0,100,0.00,,,0.00,VWS V14.01,2013-02-13 16:39:00,
2013-02-13 10:44:00,30.6,30.6,28.65,West,273,6.0,6.0,100,0.00,,,0.00,VWS V14.01,2013-02-13 16:44:00,
2013-02-13 10:49:00,30.9,30.9,28.66,WNW,285,4.0,7.0,100,0.00,,,0.00,VWS V14.01,2013-02-13 16:49:00,
2013-02-13 10:54:00,31.1,31.1,28.65,SW,234,1.0,4.0,100,0.00,,,0.00,VWS V14.01,2013-02-13 16:54:00,
2013-02-13 10:59:00,31.3,31.3,28.65,WSW,256,2.0,6.0,100,0.00,,,0.00,VWS V14.01,2013-02-13 16:59:00,
2013-02-13 11:04:00,31.6,31.6,28.65,West,272,1.0,6.0,100,0.00,,,0.00,VWS V14.01,2013-02-13 17:04:00,
2013-02-13 11:09:00,31.8,31.8,28.66,WNW,291,5.0,7.0,100,0.00,,,0.00,VWS V14.01,2013-02-13 17:09:00,
2013-02-13 11:14:00,31.9,31.9,28.66,West,277,4.0,6.0,100,0.00,,,0.00,VWS V14.01,2013-02-13 17:14:00,
2013-02-13 11:19:00,32.2,32.2,28.66,WNW,303,3.0,6.0,100,0.00,,,0.00,VWS V14.01,2013-02-13 17:19:00,
2013-02-13 11:24:00,32.4,32.4,28.66,WNW,286,2.0,4.0,100,0.00,,,0.00,VWS V14.01,2013-02-13 17:24:00,
2013-02-13 11:29:00,32.7,32.7,28.65,SSW,213,0.0,5.0,100,0.00,,,0.00,VWS V14.01,2013-02-13 17:29:00,
2013-02-13 11:34:00,33.1,33.1,28.65,South,181,0.0,4.0,100,0.00,,,0.00,VWS V14.01,2013-02-13 17:34:00,
2013-02-13 11:39:00,33.3,33.3,28.65,SSW,195,0.0,4.0,100,0.00,,SCT090,0.00,VWS V14.01,2013-02-13 17:39:00,
2013-02-13 11:44:00,33.7,33.7,28.65,SSE,165,0.0,4.0,100,0.00,,SCT090,0.00,VWS V14.01,2013-02-13 17:44:00,
2013-02-13 11:49:00,34.1,34.1,28.65,South,184,2.0,4.0,100,0.00,,SCT090,0.00,VWS V14.01,2013-02-13 17:49:00,
2013-02-13 11:54:00,34.5,34.5,28.65,SSW,196,4.0,4.0,100,0.00,,SCT090,0.00,VWS V14.01,2013-02-13 17:54:00,
2013-02-13 11:59:00,35.0,35.0,28.65,WSW,250,1.0,4.0,100,0.00,,SCT090,0.00,VWS V14.01,2013-02-13 17:59:00,
2013-02-13 12:04:00,35.5,35.5,28.64,SW,230,1.0,7.0,100,0.00,,SCT090,0.00,VWS V14.01,2013-02-13 18:04:00,
2013-02-13 12:09:00,35.9,35.9,28.64,SSE,155,2.0,7.0,100,0.00,,SCT090,0.00,VWS V14.01,2013-02-13 18:09:00,
2013-02-13 12:14:00,36.3,36.3,28.64,SSE,152,0.0,5.0,100,0.00,,SCT090,0.00,VWS V14.01,2013-02-13 18:14:00,
2013-02-13 12:19:00,36.6,36.6,28.64,SSW,205,3.0,5.0,100,0.00,,SCT090,0.00,VWS V14.01,2013-02-13 18:19:00,
2013-02-13 12:24:00,36.9,36.9,28.64,South,172,10.0,10.0,100,0.00,,SCT090,0.00,VWS V14.01,2013-02-13 18:24:00,
2013-02-13 12:29:00,37.0,37.0,28.64,SSW,194,0.0,10.0,100,0.00,,SCT090,0.00,VWS V14.01,2013-02-13 18:29:00,
2013-02-13 12:34:00,37.3,37.3,28.64,SSE,153,1.0,6.0,100,0.00,,SCT090,0.00,VWS V14.01,2013-02-13 18:34:00,
2013-02-13 12:39:00,37.4,37.4,28.64,South,186,1.0,6.0,100,0.00,,BKN090,0.00,VWS V14.01,2013-02-13 18:39:00,
2013-02-13 12:44:00,37.1,37.1,28.64,South,181,3.0,6.0,100,0.00,,BKN090,0.00,VWS V14.01,2013-02-13 18:44:00,
2013-02-13 12:49:00,36.9,36.9,28.64,SSE,153,2.0,7.0,100,0.00,,BKN090,0.00,VWS V14.01,2013-02-13 18:49:00,
2013-02-13 12:54:00,37.0,37.0,28.63,South,171,2.0,11.0,100,0.00,,BKN090,0.00,VWS V14.01,2013-02-13 18:54:00,
2013-02-13 12:59:00,36.9,36.9,28.63,SE,128,1.0,12.0,100,0.00,,BKN090,0.00,VWS V14.01,2013-02-13 18:59:00,
2013-02-13 13:04:00,36.7,36.7,28.64,North,354,2.0,5.0,100,0.00,,BKN090,0.00,VWS V14.01,2013-02-13 19:04:00,
2013-02-13 13:09:00,36.6,36.6,28.63,South,181,2.0,10.0,100,0.00,,BKN090,0.00,VWS V14.01,2013-02-13 19:09:00,
2013-02-13 13:14:00,36.5,36.5,28.63,South,191,1.0,5.0,100,0.00,,BKN090,0.00,VWS V14.01,2013-02-13 19:14:00,
2013-02-13 13:19:00,36.5,36.5,28.63,South,171,1.0,7.0,100,0.00,,BKN090,0.00,VWS V14.01,2013-02-13 19:19:00,
2013-02-13 13:24:00,36.5,36.5,28.63,South,169,2.0,7.0,100,0.00,,BKN090,0.00,VWS V14.01,2013-02-13 19:24:00,
2013-02-13 13:29:00,36.4,36.4,28.63,South,181,6.0,8.0,100,0.00,,BKN090,0.00,VWS V14.01,2013-02-13 19:29:00,
2013-02-13 13:34:00,36.4,36.4,28.63,SE,125,2.0,5.0,100,0.00,,BKN090,0.00,VWS V14.01,2013-02-13 19:34:00,
2013-02-13 13:39:00,36.5,36.5,28.63,South,188,3.0,8.0,100,0.00,,OVC090,0.00,VWS V14.01,2013-02-13 19:39:00,
2013-02-13 13:44:00,36.5,36.5,28.63,SSW,198,1.0,7.0,100,0.00,,OVC090,0.00,VWS V14.01,2013-02-13 19:44:00,
2013-02-13 13:49:00,36.7,36.7,28.63,South,189,2.0,7.0,100,0.00,,OVC090,0.00,VWS V14.01,2013-02-13 19:49:00,
2013-02-13 13:54:00,36.6,36.6,28.63,SSW,209,4.0,8.0,100,0.00,,OVC090,0.00,VWS V14.01,2013-02-13 19:54:00,
2013-02-13 13:59:00,36.7,36.7,28.63,SW,227,4.0,8.0,100,0.00,,OVC090,0.00,VWS V14.01,2013-02-13 19:59:00,
2013-02-13 14:04:00,36.6,36.6,28.63,SW,225,4.0,7.0,100,0.00,,OVC090,0.00,VWS V14.01,2013-02-13 20:04:00,
2013-02-13 14:09:00,36.5,36.5,28.63,SW,222,6.0,9.0,100,0.00,,OVC090,0.00,VWS V14.01,2013-02-13 20:09:00,
2013-02-13 14:14:00,36.4,36.4,28.63,SW,228,5.0,9.0,100,0.00,,OVC090,0.00,VWS V14.01,2013-02-13 20:14:00,
2013-02-13 14:19:00,36.3,36.3,28.63,SSW,213,4.0,12.0,100,0.00,,OVC090,0.00,VWS V14.01,2013-02-13 20:19:00,
2013-02-13 14:24:00,36.2,36.2,28.63,SW,215,6.0,10.0,100,0.00,,OVC090,0.00,VWS V14.01,2013-02-13 20:24:00,
2013-02-13 14:29:00,36.1,36.1,28.63,South,190,4.0,10.0,100,0.00,,OVC090,0.00,VWS V14.01,2013-02-13 20:29:00,
2013-02-13 14:34:00,36.0,36.0,28.63,SSW,198,4.0,8.0,100,0.00,,OVC090,0.00,VWS V14.01,2013-02-13 20:34:00,
2013-02-13 14:39:00,36.1,36.1,28.63,ESE,117,1.0,10.0,100,0.00,,CLR,0.00,VWS V14.01,2013-02-13 20:39:00,
2013-02-13 14:44:00,36.1,36.1,28.63,NE,49,1.0,9.0,100,0.00,,CLR,0.00,VWS V14.01,2013-02-13 20:44:00,
2013-02-13 14:49:00,36.1,36.1,28.64,SSW,198,4.0,9.0,100,0.00,,CLR,0.00,VWS V14.01,2013-02-13 20:49:00,
2013-02-13 14:54:00,36.2,36.2,28.64,SSW,205,4.0,6.0,100,0.00,,CLR,0.00,VWS V14.01,2013-02-13 20:54:00,
2013-02-13 14:59:00,36.3,36.3,28.64,South,187,3.0,8.0,100,0.00,,CLR,0.00,VWS V14.01,2013-02-13 20:59:00,
2013-02-13 15:04:00,36.3,36.3,28.64,South,187,5.0,6.0,100,0.00,,CLR,0.00,VWS V14.01,2013-02-13 21:04:00,
2013-02-13 15:09:00,36.3,36.3,28.64,SSW,205,4.0,8.0,100,0.00,,CLR,0.00,VWS V14.01,2013-02-13 21:09:00,
2013-02-13 15:14:00,36.3,36.3,28.64,SSW,212,4.0,7.0,100,0.00,,CLR,0.00,VWS V14.01,2013-02-13 21:14:00,
2013-02-13 15:19:00,36.2,36.2,28.64,SSW,193,5.0,7.0,100,0.00,,CLR,0.00,VWS V14.01,2013-02-13 21:19:00,
2013-02-13 15:24:00,36.1,36.1,28.64,SE,134,1.0,6.0,100,0.00,,CLR,0.00,VWS V14.01,2013-02-13 21:24:00,
2013-02-13 15:29:00,36.3,36.3,28.64,SSW,209,3.0,6.0,100,0.00,,CLR,0.00,VWS V14.01,2013-02-13 21:29:00,
2013-02-13 15:34:00,36.3,36.3,28.64,SSW,195,4.0,6.0,100,0.00,,CLR,0.00,VWS V14.01,2013-02-13 21:34:00,
2013-02-13 15:39:00,36.2,36.2,28.64,South,182,3.0,7.0,100,0.00,,FEW090,0.00,VWS V14.01,2013-02-13 21:39:00,
2013-02-13 15:44:00,36.0,36.0,28.64,SSW,195,4.0,8.0,100,0.00,,FEW090,0.00,VWS V14.01,2013-02-13 21:44:00,
2013-02-13 15:49:00,35.7,35.7,28.64,SSE,164,2.0,8.0,100,0.00,,FEW090,0.00,VWS V14.01,2013-02-13 21:49:00,
2013-02-13 15:54:00,35.4,35.4,28.64,SSW,204,2.0,7.0,100,0.00,,FEW090,0.00,VWS V14.01,2013-02-13 21:54:00,
2013-02-13 15:59:00,35.1,35.1,28.64,SSW,202,5.0,7.0,100,0.00,,FEW090,0.00,VWS V14.01,2013-02-13 21:59:00,
2013-02-13 16:04:00,35.0,35.0,28.64,SW,216,4.0,8.0,100,0.00,,FEW090,0.00,VWS V14.01,2013-02-13 22:04:00,
2013-02-13 16:09:00,34.8,34.8,28.64,South,187,4.0,8.0,100,0.00,,FEW090,0.00,VWS V14.01,2013-02-13 22:09:00,
2013-02-13 16:14:00,34.7,34.7,28.64,SSW,201,3.0,7.0,100,0.00,,FEW090,0.00,VWS V14.01,2013-02-13 22:14:00,
2013-02-13 16:19:00,34.6,34.6,28.64,SSW,196,4.0,9.0,100,0.00,,FEW090,0.00,VWS V14.01,2013-02-13 22:19:00,
2013-02-13 16:24:00,34.4,34.4,28.64,SW,219,2.0,7.0,100,0.00,,FEW090,0.00,VWS V14.01,2013-02-13 22:24:00,
2013-02-13 16:29:00,34.4,34.4,28.64,SSW,198,5.0,8.0,100,0.00,,FEW090,0.00,VWS V14.01,2013-02-13 22:29:00,
2013-02-13 16:34:00,34.3,34.3,28.64,SW,223,6.0,9.0,100,0.00,,FEW090,0.00,VWS V14.01,2013-02-13 22:34:00,
2013-02-13 16:39:00,34.2,34.2,28.64,SSW,213,4.0,10.0,100,0.00,,SCT120,0.00,VWS V14.01,2013-02-13 22:39:00,
2013-02-13 16:44:00,34.1,34.1,28.64,SSW,201,4.0,7.0,100,0.00,,SCT120,0.00,VWS V14.01,2013-02-13 22:44:00,
2013-02-13 16:49:00,33.9,33.9,28.64,SW,233,4.0,8.0,100,0.00,,SCT120,0.00,VWS V14.01,2013-02-13 22:49:00,
2013-02-13 16:54:00,33.9,33.9,28.64,South,191,7.0,7.0,100,0.00,,SCT120,0.00,VWS V14.01,2013-02-13 22:54:00,
2013-02-13 16:59:00,33.8,33.8,28.64,SSE,168,1.0,8.0,100,0.00,,SCT120,0.00,VWS V14.01,2013-02-13 22:59:00,
2013-02-13 17:04:00,33.6,33.6,28.64,SSW,195,4.0,5.0,100,0.00,,SCT120,0.00,VWS V14.01,2013-02-13 23:04:00,
2013-02-13 17:09:00,33.5,33.5,28.64,SSW,204,4.0,5.0,100,0.00,,SCT120,0.00,VWS V14.01,2013-02-13 23:09:00,
2013-02-13 17:14:00,33.4,33.4,28.64,SSW,194,2.0,6.0,100,0.00,,SCT120,0.00,VWS V14.01,2013-02-13 23:14:00,
2013-02-13 17:19:00,33.3,33.3,28.64,SSW,199,4.0,6.0,100,0.00,,SCT120,0.00,VWS V14.01,2013-02-13 23:19:00,
2013-02-13 17:24:00,33.2,33.2,28.64,South,191,4.0,7.0,100,0.00,,SCT120,0.00,VWS V14.01,2013-02-13 23:24:00,
2013-02-13 17:29:00,33.2,33.2,28.64,SSW,211,3.0,9.0,100,0.00,,SCT120,0.00,VWS V14.01,2013-02-13 23:29:00,
2013-02-13 17:34:00,33.1,33.1,28.64,SSW,198,3.0,8.0,100,0.00,,SCT120,0.00,VWS V14.01,2013-02-13 23:34:00,
2013-02-13 17:39:00,33.0,33.0,28.64,SSW,197,3.0,8.0,100,0.00,,BKN090,0.00,VWS V14.01,2013-02-13 23:39:00,
2013-02-13 17:44:00,32.9,32.9,28.64,SSW,209,3.0,4.0,100,0.00,,BKN090,0.00,VWS V14.01,2013-02-13 23:44:00,
2013-02-13 17:49:00,32.8,32.8,28.64,South,188,5.0,5.0,100,0.00,,BKN090,0.00,VWS V14.01,2013-02-13 23:49:00,
2013-02-13 17:54:00,32.8,32.8,28.64,South,191,2.0,6.0,100,0.00,,BKN090,0.00,VWS V14.01,2013-02-13 23:54:00,
2013-02-13 17:59:00,32.7,32.7,28.64,SSW,196,1.0,6.0,100,0.00,,BKN090,0.00,VWS V14.01,2013-02-13 23:59:00,
2013-02-13 18:04:00,32.6,32.6,28.64,South,183,1.0,3.0,100,0.00,,BKN090,0.00,VWS V14.01,2013-02-14 00:04:00,
2013-02-13 18:09:00,32.5,32.5,28.64,South,182,2.0,3.0,100,0.00,,OVC090,0.00,VWS V14.01,2013-02-14 00:09:00,
2013-02-13 18:14:00,32.5,32.5,28.64,South,182,3.0,5.0,100,0.00,,OVC090,0.00,VWS V14.01,2013-02-14 00:14:00,
2013-02-13 18:19:00,32.5,32.5,28.64,SSW,194,3.0,5.0,100,0.00,,OVC090,0.00,VWS V14.01,2013-02-14 00:19:00,
2013-02-13 18:24:00,32.5,32.5,28.64,SSW,197,0.0,5.0,100,0.00,,OVC090,0.00,VWS V14.01,2013-02-14 00:24:00,
2013-02-13 18:29:00,32.4,32.4,28.64,South,187,1.0,6.0,100,0.00,,OVC090,0.00,VWS V14.01,2013-02-14 00:29:00,
2013-02-13 18:34:00,32.4,32.4,28.64,SSW,194,2.0,4.0,100,0.00,,OVC090,0.00,VWS V14.01,2013-02-14 00:34:00,
2013-02-13 18:39:00,32.3,32.3,28.64,SSW,196,2.0,4.0,100,0.00,,OVC090,0.00,VWS V14.01,2013-02-14 00:39:00,
2013-02-13 18:44:00,32.3,32.3,28.64,SSW,203,2.0,4.0,100,0.00,,OVC090,0.00,VWS V14.01,2013-02-14 00:44:00,
2013-02-13 18:49:00,32.3,32.3,28.64,SSW,197,2.0,6.0,100,0.00,,OVC090,0.00,VWS V14.01,2013-02-14 00:49:00,
2013-02-13 18:54:00,32.3,32.3,28.64,South,186,0.0,3.0,100,0.00,,OVC090,0.00,VWS V14.01,2013-02-14 00:54:00,
2013-02-13 18:59:00,32.3,32.3,28.64,South,191,1.0,4.0,100,0.00,,OVC090,0.00,VWS V14.01,2013-02-14 00:59:00,
2013-02-13 19:04:00,32.2,32.2,28.64,South,182,3.0,4.0,100,0.00,,OVC090,0.00,VWS V14.01,2013-02-14 01:04:00,
2013-02-13 19:09:00,32.2,32.2,28.64,South,170,0.0,5.0,100,0.00,,OVC090,0.00,VWS V14.01,2013-02-14 01:09:00,
2013-02-13 19:14:00,32.1,32.1,28.64,SSW,194,1.0,7.0,100,0.00,,OVC090,0.00,VWS V14.01,2013-02-14 01:14:00,
2013-02-13 19:19:00,32.2,32.2,28.64,South,183,1.0,7.0,100,0.00,,OVC090,0.00,VWS V14.01,2013-02-14 01:19:00,
2013-02-13 19:24:00,32.1,32.1,28.64,SSE,155,3.0,3.0,100,0.00,,OVC090,0.00,VWS V14.01,2013-02-14 01:24:00,
2013-02-13 19:29:00,32.0,32.0,28.64,SSW,198,1.0,5.0,100,0.00,,OVC090,0.00,VWS V14.01,2013-02-14 01:29:00,
2013-02-13 19:34:00,31.9,31.9,28.64,South,172,2.0,6.0,100,0.00,,OVC090,0.00,VWS V14.01,2013-02-14 01:34:00,
2013-02-13 19:39:00,31.9,31.9,28.64,SSE,158,1.0,6.0,100,0.00,,OVC090,0.00,VWS V14.01,2013-02-14 01:39:00,
2013-02-13 19:44:00,31.8,31.8,28.64,South,184,1.0,6.0,100,0.00,,OVC090,0.00,VWS V14.01,2013-02-14 01:44:00,
2013-02-13 19:49:00,31.8,31.8,28.64,South,180,1.0,6.0,100,0.00,,OVC090,0.00,VWS V14.01,2013-02-14 01:49:00,
2013-02-13 19:54:00,31.8,31.8,28.64,SSE,156,1.0,5.0,100,0.00,,OVC090,0.00,VWS V14.01,2013-02-14 01:54:00,
2013-02-13 19:59:00,31.9,31.9,28.64,SSE,152,0.0,5.0,100,0.00,,OVC090,0.00,VWS V14.01,2013-02-14 01:59:00,
2013-02-13 20:04:00,31.9,31.9,28.64,SSE,160,0.0,4.0,100,0.00,,OVC090,0.00,VWS V14.01,2013-02-14 02:04:00,
2013-02-13 20:09:00,31.9,31.9,28.64,SSW,196,0.0,5.0,100,0.00,,OVC090,0.00,VWS V14.01,2013-02-14 02:09:00,
2013-02-13 20:14:00,32.1,32.1,28.64,South,176,3.0,5.0,100,0.00,,OVC090,0.00,VWS V14.01,2013-02-14 02:14:00,
2013-02-13 20:19:00,32.1,32.1,28.64,South,186,4.0,8.0,100,0.00,,OVC090,0.00,VWS V14.01,2013-02-14 02:19:00,
2013-02-13 20:24:00,32.1,32.1,28.64,South,172,2.0,7.0,100,0.00,,OVC090,0.00,VWS V14.01,2013-02-14 02:24:00,
2013-02-13 20:29:00,32.2,32.2,28.63,SSW,201,0.0,7.0,100,0.00,,OVC090,0.00,VWS V14.01,2013-02-14 02:29:00,
2013-02-13 20:34:00,32.3,32.3,28.63,South,188,1.0,5.0,100,0.00,,OVC090,0.00,VWS V14.01,2013-02-14 02:34:00,
2013-02-13 20:39:00,32.3,32.3,28.63,South,187,4.0,5.0,100,0.00,,OVC110,0.00,VWS V14.01,2013-02-14 02:39:00,
2013-02-13 20:44:00,32.3,32.3,28.63,SSW,192,0.0,2.0,100,0.00,,OVC110,0.00,VWS V14.01,2013-02-14 02:44:00,
2013-02-13 20:49:00,32.3,32.3,28.63,South,172,0.0,5.0,100,0.00,,OVC110,0.00,VWS V14.01,2013-02-14 02:49:00,
2013-02-13 20:54:00,32.3,32.3,28.63,South,173,1.0,3.0,100,0.00,,OVC110,0.00,VWS V14.01,2013-02-14 02:54:00,
2013-02-13 20:59:00,32.3,32.3,28.63,SSE,156,3.0,6.0,100,0.00,,OVC110,0.00,VWS V14.01,2013-02-14 02:59:00,
2013-02-13 21:04:00,32.3,32.3,28.63,South,182,2.0,6.0,100,0.00,,OVC110,0.00,VWS V14.01,2013-02-14 03:04:00,
2013-02-13 21:09:00,32.4,32.4,28.62,South,190,4.0,6.0,100,0.00,,OVC110,0.00,VWS V14.01,2013-02-14 03:09:00,
2013-02-13 21:14:00,32.6,32.6,28.62,SSW,193,4.0,6.0,100,0.00,,OVC110,0.00,VWS V14.01,2013-02-14 03:14:00,
2013-02-13 21:19:00,32.7,32.7,28.62,SSE,163,0.0,9.0,100,0.00,,OVC110,0.00,VWS V14.01,2013-02-14 03:19:00,
2013-02-13 21:24:00,32.7,32.7,28.62,SSW,195,3.0,9.0,100,0.00,,OVC110,0.00,VWS V14.01,2013-02-14 03:24:00,
2013-02-13 21:29:00,32.8,32.8,28.62,SSE,149,3.0,9.0,100,0.00,,OVC110,0.00,VWS V14.01,2013-02-14 03:29:00,
2013-02-13 21:34:00,32.9,32.9,28.62,South,177,3.0,5.0,100,0.00,,OVC110,0.00,VWS V14.01,2013-02-14 03:34:00,
2013-02-13 21:39:00,32.8,32.8,28.62,SSE,155,0.0,6.0,100,0.00,,OVC075,0.00,VWS V14.01,2013-02-14 03:39:00,
2013-02-13 21:44:00,32.8,32.8,28.61,South,181,5.0,8.0,100,0.00,,OVC075,0.00,VWS V14.01,2013-02-14 03:44:00,
2013-02-13 21:49:00,32.7,32.7,28.61,South,178,2.0,8.0,100,0.00,,OVC075,0.00,VWS V14.01,2013-02-14 03:49:00,
2013-02-13 21:54:00,32.6,32.6,28.61,SSE,153,3.0,6.0,100,0.00,,OVC075,0.00,VWS V14.01,2013-02-14 03:54:00,
2013-02-13 21:59:00,32.4,32.4,28.60,SSE,164,1.0,6.0,100,0.00,,OVC075,0.00,VWS V14.01,2013-02-14 03:59:00,
2013-02-13 22:04:00,32.3,32.3,28.61,SSE,149,3.0,3.0,100,0.00,,OVC075,0.00,VWS V14.01,2013-02-14 04:04:00,
2013-02-13 22:09:00,32.2,32.2,28.60,SSE,153,3.0,4.0,100,0.00,,OVC075,0.00,VWS V14.01,2013-02-14 04:09:00,
2013-02-13 22:14:00,32.1,32.1,28.60,SSE,156,2.0,5.0,100,0.00,,OVC075,0.00,VWS V14.01,2013-02-14 04:14:00,
2013-02-13 22:19:00,32.1,32.1,28.60,South,179,1.0,5.0,100,0.00,,OVC075,0.00,VWS V14.01,2013-02-14 04:19:00,
2013-02-13 22:24:00,32.1,32.1,28.60,SE,139,3.0,6.0,100,0.00,,OVC075,0.00,VWS V14.01,2013-02-14 04:24:00,
2013-02-13 22:29:00,32.1,32.1,28.60,SSE,166,0.0,6.0,100,0.00,,OVC075,0.00,VWS V14.01,2013-02-14 04:29:00,
2013-02-13 22:34:00,32.2,32.2,28.60,South,184,6.0,7.0,100,0.00,,OVC075,0.00,VWS V14.01,2013-02-14 04:34:00,
2013-02-13 22:39:00,32.2,32.2,28.59,SSE,161,2.0,7.0,100,0.00,,OVC080,0.00,VWS V14.01,2013-02-14 04:39:00,
2013-02-13 22:44:00,32.3,32.3,28.59,SSE,156,5.0,6.0,100,0.00,,OVC080,0.00,VWS V14.01,2013-02-14 04:44:00,
2013-02-13 22:49:00,32.4,32.4,28.59,SSE,167,6.0,7.0,100,0.00,,OVC080,0.00,VWS V14.01,2013-02-14 04:49:00,
2013-02-13 22:54:00,32.5,32.5,28.60,South,182,2.0,6.0,100,0.00,,OVC080,0.00,VWS V14.01,2013-02-14 04:54:00,
2013-02-13 22:59:00,32.6,32.6,28.59,SSE,160,1.0,10.0,100,0.00,,OVC080,0.00,VWS V14.01,2013-02-14 04:59:00,
2013-02-13 23:00:00,32.7,32.7,28.59,SSE,158,3.0,10.0,100,0.00,,OVC080,0.00,VWS V14.01,2013-02-14 05:00:00,
2013-02-13 23:05:00,32.8,32.8,28.59,South,177,3.0,11.0,100,0.00,,OVC080,0.00,VWS V14.01,2013-02-14 05:05:00,
2013-02-13 23:10:00,33.0,33.0,28.59,South,170,2.0,2.0,100,0.00,,OVC080,0.00,VWS V14.01,2013-02-14 05:10:00,
2013-02-13 23:15:00,33.1,33.1,28.59,South,170,3.0,6.0,100,0.00,,OVC080,0.00,VWS V14.01,2013-02-14 05:15:00,
2013-02-13 23:20:00,33.1,33.1,28.59,South,172,3.0,4.0,100,0.00,,OVC080,0.00,VWS V14.01,2013-02-14 05:20:00,
2013-02-13 23:25:00,33.1,33.1,28.58,South,169,4.0,9.0,100,0.00,,OVC080,0.00,VWS V14.01,2013-02-14 05:25:00,
2013-02-13 23:30:00,33.1,33.1,28.58,SSE,164,4.0,4.0,100,0.00,,OVC080,0.00,VWS V14.01,2013-02-14 05:30:00,
2013-02-13 23:35:00,33.1,33.1,28.58,SSE,155,2.0,8.0,100,0.00,,OVC090,0.00,VWS V14.01,2013-02-14 05:35:00,
2013-02-13 23:40:00,33.1,33.1,28.58,SSE,161,3.0,7.0,100,0.00,,OVC090,0.00,VWS V14.01,2013-02-14 05:40:00,
2013-02-13 23:45:00,33.1,33.1,28.58,South,185,3.0,9.0,100,0.00,,OVC090,0.00,VWS V14.01,2013-02-14 05:45:00,
2013-02-13 23:50:00,33.1,33.1,28.58,SSE,150,1.0,3.0,100,0.00,,OVC090,0.00,VWS V14.01,2013-02-14 05:50:00,
2013-02-13 23:55:00,33.1,33.1,28.58,SSE,157,0.0,11.0,100,0.00,,OVC090,0.00,VWS V14.01,2013-02-14 05:55:00,